Dubuque, IA

8:20 AM CST on November 14, 2019 (GMT -0600)
Dubuque Regional

Weather History for KDBQ - September, 2019

Change the Weather History Date:

Sunday, September 29, 2019

  Actual Average Record
Temperature  
Mean Temperature 58 °F 56 °F  
Max Temperature 64 °F 67 °F 93 °F (1953)
Min Temperature 50 °F 46 °F 28 °F (1984)
Degree Days  
Heating Degree Days 8 9  
Month to date heating degree days 53 142  
Since 1 July heating degree days 62 169  
Cooling Degree Days 0 1  
Month to date cooling degree days 86 61  
Year to date cooling degree days 659 637  
Growing Degree Days 8 (Base 50)    
Moisture  
Dew Point 59 °F    
Average Humidity 98    
Maximum Humidity 100    
Minimum Humidity 93    
Precipitation  
Precipitation 0.71 in 0.09 in 2.18 in (1878)
Month to date precipitation 13.31 3.36  
Year to date precipitation 44.44 29.34  
Snow  
Snow 0.00 in 0.00 in - ()
Month to date snowfall 0.0 0.0  
Since 1 July snowfall 0.0 0.0  
Since 1 September snowfall 0.0 0.0  
Snow Depth 0.00 in    
Sea Level Pressure  
Sea Level Pressure 30.12 in    
Wind  
Wind Speed 9 mph ()    
Max Wind Speed 15 mph    
Max Gust Speed 24 mph    
Visibility 3.0 miles    
Events Fog , Rain    
T = Trace of Precipitation, MM = Missing Value Source: Averaged Metar Reports

Daily Weather History Graph

Daily Weather History Graph

Search for Another Location

Airport or City:

Astronomy

Sep. 29, 2019 Rise Set
Actual Time 6:57 AM CDT 6:48 PM CDT
Civil Twilight 6:29 AM CDT 7:16 PM CDT
Nautical Twilight 5:56 AM CDT 7:48 PM CDT
Astronomical Twilight 5:23 AM CDT 8:21 PM CDT
Moon 7:48 AM CDT (9/29) 7:47 PM CDT (9/29)
Length of Visible Light 12h 46m
Length of Day
11h 50m
New Moon, 1% of the Moon is Illuminated
Sep 29
New Moon
Oct 5
First Quarter
Oct 13
Full
Oct 21
Last Quarter
Oct 27
New

Hourly Weather History & Observations

Time (CDT) Temp. Dew Point Humidity Pressure Visibility Wind Dir Wind Speed Gust Speed Precip Events Conditions
12:53 AM 50.0 °F - N/A% 30.18 in 8.0 mi ENE 12.7 mph - 0.14 in Rain Light Rain
1:53 AM 51.1 °F - N/A% 30.19 in 4.0 mi NE 9.2 mph - 0.10 in Rain Rain
2:01 AM 51.1 °F - N/A% 30.18 in 3.0 mi NE 8.1 mph - 0.03 in Rain Heavy Rain
2:14 AM 50.0 °F - N/A% 30.17 in 2.5 mi NE 9.2 mph - 0.11 in Rain Heavy Rain
2:31 AM 51.1 °F - N/A% 30.16 in 3.0 mi ENE 11.5 mph - 0.24 in Rain Rain
2:53 AM 52.0 °F - N/A% 30.14 in 8.0 mi NE 11.5 mph - 0.29 in Rain Light Rain
3:03 AM 52.0 °F - N/A% 30.14 in 7.0 mi ENE 10.4 mph - 0.00 in Rain Light Rain
3:53 AM 53.1 °F - N/A% 30.14 in 10.0 mi ENE 10.4 mph - 0.03 in   Overcast
4:53 AM 54.0 °F - N/A% 30.14 in 10.0 mi ENE 13.8 mph - 0.08 in   Overcast
5:53 AM 55.9 °F - N/A% 30.14 in 10.0 mi ENE 11.5 mph 24.2 mph N/A   Overcast
6:12 AM 55.9 °F 55.0 °F 97% 30.13 in 10.0 mi ENE 10.4 mph 20.7 mph N/A   Overcast
6:53 AM 57.0 °F 55.0 °F 93% 30.14 in 8.0 mi ENE 12.7 mph - N/A   Overcast
7:30 AM 57.0 °F - N/A% 30.14 in 1.8 mi ENE 11.5 mph - 0.01 in Rain Rain
7:39 AM 57.0 °F 55.0 °F 93% 30.13 in 2.5 mi ENE 10.4 mph - 0.03 in Rain Rain
7:48 AM 57.2 °F 55.4 °F 94% 30.13 in 5.0 mi ENE 10.4 mph - 0.04 in Rain Light Rain
7:53 AM 57.0 °F 55.0 °F 93% 30.14 in 6.0 mi ENE 9.2 mph - 0.04 in Rain Light Rain
8:04 AM 57.9 °F 57.0 °F 97% 30.13 in 1.8 mi ENE 10.4 mph - 0.01 in Rain Light Rain
8:19 AM 57.9 °F 57.0 °F 97% 30.14 in 2.5 mi ENE 8.1 mph - 0.02 in   Overcast
8:49 AM 57.2 °F 57.2 °F 100% 30.14 in 1.8 mi ENE 8.1 mph - 0.02 in   Overcast
8:53 AM 57.9 °F 57.0 °F 97% 30.14 in 1.8 mi East 11.5 mph - 0.03 in   Overcast
9:17 AM 57.9 °F 57.0 °F 97% 30.14 in 2.0 mi East 9.2 mph - N/A   Overcast
9:23 AM 57.9 °F 57.0 °F 97% 30.14 in 1.8 mi East 10.4 mph - N/A   Overcast
10:41 AM 59.0 °F 59.0 °F 100% 30.14 in 2.0 mi East 10.4 mph - N/A   Overcast
10:53 AM 59.0 °F 59.0 °F 100% 30.14 in 2.5 mi East 8.1 mph - N/A   Overcast
11:53 AM 60.1 °F 59.0 °F 96% 30.13 in 2.0 mi ENE 8.1 mph - N/A   Overcast
12:44 PM 60.1 °F 59.0 °F 96% 30.12 in 1.0 mi East 5.8 mph - N/A   Overcast
12:53 PM 60.1 °F 59.0 °F 96% 30.13 in 1.2 mi East 9.2 mph - N/A   Overcast
1:25 PM 60.1 °F 59.0 °F 96% 30.10 in 2.0 mi East 8.1 mph - N/A   Overcast
1:50 PM 60.8 °F 59.0 °F 94% 30.11 in 1.8 mi ENE 5.8 mph - N/A   Overcast
1:53 PM 60.1 °F 59.0 °F 96% 30.12 in 1.8 mi ENE 5.8 mph - N/A   Overcast
2:53 PM 61.0 °F 59.0 °F 93% 30.11 in 2.0 mi East 6.9 mph - N/A   Overcast
3:38 PM 61.0 °F 61.0 °F 100% 30.08 in 1.8 mi ENE 6.9 mph - N/A   Overcast
3:53 PM 61.0 °F 61.0 °F 100% 30.09 in 2.0 mi East 8.1 mph - N/A   Overcast
4:53 PM 62.1 °F 62.1 °F 100% 30.05 in 1.5 mi ESE 9.2 mph - N/A   Overcast
5:28 PM 62.1 °F 62.1 °F 100% 30.07 in 0.8 mi East 5.8 mph - N/A   Overcast
5:53 PM 62.1 °F 62.1 °F 100% 30.07 in 0.2 mi ESE 3.5 mph - N/A Fog Fog
6:43 PM 62.1 °F 62.1 °F 100% 30.08 in 0.5 mi NE 5.8 mph - N/A Fog Fog
6:53 PM 62.1 °F 62.1 °F 100% 30.07 in 0.5 mi ENE 9.2 mph - N/A Fog Fog
7:53 PM 62.1 °F 62.1 °F 100% 30.07 in 0.5 mi ENE 5.8 mph - N/A Fog Fog
8:00 PM 62.1 °F 62.1 °F 100% 30.07 in 1.2 mi ENE 8.1 mph - N/A   Overcast
8:53 PM 62.1 °F 62.1 °F 100% 30.06 in 0.5 mi ESE 10.4 mph - N/A Fog Fog
9:05 PM 62.1 °F 62.1 °F 100% 30.06 in 0.2 mi ESE 6.9 mph - N/A Fog Fog
9:29 PM 62.1 °F 62.1 °F 100% 30.06 in 0.2 mi East 8.1 mph - N/A Fog Fog
9:53 PM 62.1 °F 62.1 °F 100% 30.07 in 0.2 mi East 8.1 mph - N/A Fog Fog
10:53 PM 63.0 °F 63.0 °F 100% 30.06 in 0.2 mi East 6.9 mph - N/A Fog Fog
11:53 PM 64.0 °F 64.0 °F 100% 30.05 in 0.2 mi SE 6.9 mph - N/A Fog Fog